Weston, WY

5:35 PM MDT on September 29, 2016 (GMT -0600)
Gillette-Campbell County

Weather History for KGCC - February, 2014

Change the Weather History Date:

Monday, February 3, 2014

  Actual Average Record
Temperature  
Mean Temperature 13 °F 26 °F  
Max Temperature 19 °F 37 °F 41 °F (2015)
Min Temperature 7 °F 15 °F 7 °F (2014)
Degree Days  
Heating Degree Days 52 39  
Month to date heating degree days 156 117  
Since 1 July heating degree days 4459 4472  
Cooling Degree Days 0 0  
Month to date cooling degree days 0 0  
Year to date cooling degree days 0 0  
Moisture  
Dew Point 7 °F    
Average Humidity 78    
Maximum Humidity 88    
Minimum Humidity 67    
Precipitation  
Precipitation T in 0.01 in 0.04 in (2015)
Month to date precipitation 0.01 0.04  
Year to date precipitation 0.40 0.43  
Sea Level Pressure  
Sea Level Pressure 30.03 in    
Wind  
Wind Speed 8 mph (NNE)    
Max Wind Speed 15 mph    
Max Gust Speed 17 mph    
Visibility 6 miles    
Events Snow    
T = Trace of Precipitation, MM = Missing Value Source: NWS Daily Summary

Daily Weather History Graph

Daily Weather History Graph

Search for Another Location

Airport or City:

Trip Planner

Search our weather history database for the weather conditions in past years. The results will help you decide how hot, cold, wet, or windy it might be!

Date:

Astronomy

Feb. 03, 2014 Rise Set
Actual Time 7:17 AM MST 5:14 PM MST
Civil Twilight 6:47 AM MST 5:45 PM MST
Nautical Twilight 6:12 AM MST 6:20 PM MST
Astronomical Twilight 5:38 AM MST 6:53 PM MST
Moon 9:10 AM MST (2/3) 10:21 PM MST (2/3)
Length of Visible Light 10h 58m
Length of Day
9h 56m
Waxing Crescent, 20% of the Moon is Illuminated
Feb 3
Waxing Crescent
Feb 6
First Quarter
Feb 14
Full
Feb 22
Last Quarter
Mar 1
New

Hourly Weather History & Observations

Time (MST) Temp. Windchill Dew Point Humidity Pressure Visibility Wind Dir Wind Speed Gust Speed Precip Events Conditions
12:53 AM 12.9 °F 6.9 °F 7.0 °F 77% 30.00 in 10.0 mi NNE 3.5 mph - N/A   Overcast
1:53 AM 15.1 °F 9.4 °F 8.1 °F 74% 29.99 in 10.0 mi North 3.5 mph - N/A   Overcast
2:53 AM 14.0 °F 8.2 °F 8.1 °F 77% 29.98 in 10.0 mi NW 3.5 mph - N/A   Overcast
3:37 AM 15.8 °F 8.6 °F 8.6 °F 73% 29.84 in 4.0 mi NNW 4.6 mph - 0.00 in Snow Light Snow
3:53 AM 16.0 °F 10.4 °F 9.0 °F 74% 29.98 in 8.0 mi North 3.5 mph - 0.00 in   Overcast
4:03 AM 15.8 °F 10.2 °F 8.6 °F 73% 29.84 in 10.0 mi North 3.5 mph - N/A   Overcast
4:53 AM 16.0 °F - 10.0 °F 77% 29.99 in 10.0 mi Calm Calm - N/A   Overcast
5:53 AM 15.1 °F 9.4 °F 12.0 °F 88% 30.02 in 10.0 mi North 3.5 mph - N/A   Overcast
6:53 AM 10.0 °F - 7.0 °F 87% 30.06 in 10.0 mi Calm Calm - N/A   Partly Cloudy
7:53 AM 9.0 °F - 5.0 °F 84% 30.06 in 10.0 mi Calm Calm - N/A   Clear
8:53 AM 12.9 °F 3.8 °F 9.0 °F 84% 30.06 in 10.0 mi North 5.8 mph - N/A   Mostly Cloudy
9:53 AM 16.0 °F 6.3 °F 10.0 °F 77% 30.07 in 10.0 mi North 6.9 mph - N/A   Clear
10:53 AM 18.0 °F 7.7 °F 10.9 °F 74% 30.09 in 10.0 mi North 8.1 mph - N/A   Scattered Clouds
11:24 AM 17.6 °F 5.0 °F 10.4 °F 73% 29.92 in 10.0 mi North 11.5 mph - N/A   Overcast
11:53 AM 19.0 °F 7.5 °F 10.9 °F 71% 30.08 in 10.0 mi North 10.4 mph - N/A   Overcast
12:53 PM 17.1 °F 3.0 °F 10.0 °F 74% 30.09 in 8.0 mi North 13.8 mph - N/A   Overcast
1:53 PM 17.1 °F 3.0 °F 9.0 °F 71% 30.08 in 10.0 mi North 13.8 mph - N/A   Overcast
2:17 PM 17.6 °F 3.7 °F 8.6 °F 68% 29.91 in 10.0 mi North 13.8 mph - N/A   Scattered Clouds
2:53 PM 17.1 °F 5.0 °F 8.1 °F 68% 30.09 in 10.0 mi North 10.4 mph - N/A   Mostly Cloudy
3:53 PM 14.0 °F -0.2 °F 7.0 °F 74% 30.13 in 8.0 mi North 12.7 mph - N/A   Overcast
4:03 PM 14.0 °F 0.5 °F 8.6 °F 79% 29.95 in 2.0 mi North 11.5 mph - 0.00 in Snow Light Snow
4:13 PM 12.2 °F -0.2 °F 8.6 °F 85% 29.95 in 4.0 mi North 9.2 mph - 0.00 in   Haze
4:23 PM 12.2 °F -0.2 °F 8.6 °F 85% 29.96 in 2.0 mi NE 9.2 mph - 0.00 in Snow Light Snow
4:31 PM 12.2 °F -1.0 °F 8.6 °F 85% 29.96 in 1.2 mi NE 10.4 mph - 0.00 in Snow Light Snow
4:42 PM 12.2 °F -0.2 °F 6.8 °F 79% 29.96 in 1.5 mi NNE 9.2 mph - 0.00 in Snow Light Snow
4:53 PM 12.0 °F -0.4 °F 7.0 °F 80% 30.15 in 1.2 mi North 9.2 mph - 0.00 in Snow Light Snow
5:07 PM 12.2 °F -1.0 °F 6.8 °F 79% 29.96 in 3.0 mi NNE 10.4 mph - 0.00 in Snow Light Snow
5:28 PM 12.2 °F -1.0 °F 6.8 °F 79% 29.97 in 2.5 mi NNE 10.4 mph - 0.00 in Snow Light Snow
5:48 PM 10.4 °F -3.3 °F 6.8 °F 85% 29.97 in 4.0 mi NE 10.4 mph - 0.00 in Snow Light Snow
5:53 PM 10.9 °F -2.6 °F 6.1 °F 81% 30.17 in 3.0 mi NE 10.4 mph - 0.00 in Snow Light Snow
5:59 PM 10.4 °F -3.3 °F 6.8 °F 85% 29.97 in 1.8 mi NNE 10.4 mph - 0.00 in Snow Light Snow
6:07 PM 10.4 °F -2.4 °F 6.8 °F 85% 29.97 in 2.0 mi NNE 9.2 mph - 0.00 in Snow Light Snow
6:16 PM 10.4 °F -1.5 °F 6.8 °F 85% 29.97 in 5.0 mi NNE 8.1 mph - 0.00 in Snow Light Snow
6:25 PM 10.4 °F -4.8 °F 6.8 °F 85% 29.98 in 2.5 mi NNE 12.7 mph - 0.00 in Snow Light Snow
6:40 PM 10.4 °F -3.3 °F 6.8 °F 85% 29.97 in 4.0 mi NNE 10.4 mph - 0.00 in Snow Light Snow
6:53 PM 10.0 °F -3.7 °F 6.1 °F 84% 30.19 in 5.0 mi NNE 10.4 mph - 0.00 in Snow Light Snow
7:53 PM 9.0 °F -5.1 °F 5.0 °F 84% 30.21 in 4.0 mi NNE 10.4 mph - 0.00 in Snow Light Snow
8:53 PM 8.1 °F -7.0 °F 3.9 °F 83% 30.20 in 7.0 mi NNE 11.5 mph - 0.00 in   Overcast
9:53 PM 9.0 °F -3.2 °F 3.9 °F 80% 30.22 in 5.0 mi NNE 8.1 mph - 0.00 in   Haze
10:12 PM 8.6 °F -4.7 °F 3.2 °F 79% 30.01 in 2.0 mi NE 9.2 mph - 0.00 in Snow Light Snow
10:23 PM 8.6 °F -5.5 °F 3.2 °F 79% 30.02 in 6.0 mi NE 10.4 mph - 0.00 in Snow Light Snow
10:34 PM 8.6 °F -6.3 °F 3.2 °F 79% 30.02 in 4.0 mi NNE 11.5 mph - 0.00 in Snow Light Snow
10:53 PM 8.1 °F -6.2 °F 3.0 °F 80% 30.22 in 4.0 mi NE 10.4 mph - 0.00 in Snow Light Snow
11:53 PM 8.1 °F -4.3 °F 3.0 °F 80% 30.22 in 4.0 mi NE 8.1 mph - 0.00 in   Haze